DW6881 Weather Reports


time (UTC)temp
F
wind
direction
speed
knots
gust
knots
rain 1hr
in
rain 24hr
in
rain mn
in
humidity
%
barometer
mb
20260510044347 55 345 0.9 4.3 0.00 0.24 0.00 95 1006.4
20260510043318 56 345 1.7 3.5 0.01 0.24 0.00 94 1006.4
20260510042814 56 345 0.9 3.5 0.01 0.24 0.00 94 1006.4
20260510042313 56 345 0.9 3.5 0.01 0.24 0.00 94 1006.4
20260510041813 56 345 1.7 5.2 0.01 0.24 0.00 94 1006.4
20260510041308 56 346 3.5 5.2 0.03 0.24 0.00 93 1006.7
20260510040803 56 345 3.5 5.2 0.05 0.24 0.00 93 1006.7
20260510035757 56 345 2.6 5.2 0.10 0.24 0.24 92 1006.6
20260510035252 57 345 2.6 5.2 0.11 0.24 0.24 91 1006.6
20260510034243 57 345 1.7 4.3 0.11 0.24 0.24 90 1006.9
20260510033744 57 345 2.6 4.3 0.11 0.24 0.24 89 1006.9
20260510033244 57 345 0.9 3.5 0.10 0.23 0.23 88 1006.9
20260510032740 58 345 0.0 2.6 0.10 0.23 0.23 87 1007.2
20260510032240 58 345 0.0 0.9 0.10 0.23 0.23 86 1007.3
20260510031728 58 345 0.0 0.9 0.09 0.22 0.22 86 1007.3
20260510031227 58 345 0.9 3.5 0.08 0.21 0.21 84 1007.8
20260510030718 59 345 0.9 3.5 0.06 0.19 0.19 83 1007.8
20260510030218 59 345 1.7 6.1 0.02 0.15 0.15 82 1007.8
20260510025215 60 346 1.7 6.1 0.00 0.13 0.13 77 1007.4
20260510024705 60 346 2.6 8.7 0.00 0.13 0.13 75 1007.4
20260510024204 61 346 3.5 12.2 0.00 0.13 0.13 73 1007.3
20260510023703 61 345 3.5 13.9 0.00 0.13 0.13 71 1007.3
20260510023203 62 331 2.6 13.9 0.00 0.13 0.13 69 1007.3
20260510022703 62 217 1.7 6.1 0.00 0.13 0.13 68 1005.7
20260510022204 62 211 1.7 4.3 0.00 0.13 0.13 68 1005.7
20260510021207 61 211 0.9 5.2 0.00 0.13 0.13 68 1005.4
20260510020704 61 211 0.9 2.6 0.00 0.13 0.13 68 1005.4
20260510020203 61 211 0.9 2.6 0.00 0.14 0.13 68 1005.4
20260510015655 61 211 0.9 5.2 0.00 0.14 0.13 67 1005.3
20260510015142 61 211 0.9 5.2 0.00 0.14 0.13 67 1005.3
20260510014642 61 211 0.9 2.6 0.00 0.14 0.13 67 1005.3
20260510014141 61 211 0.0 2.6 0.00 0.14 0.13 67 1005.1
20260510013639 61 211 0.0 2.6 0.00 0.14 0.13 67 1005.1
20260510013115 61 211 0.9 3.5 0.00 0.14 0.13 66 1005.1
20260510012604 62 211 0.9 3.5 0.00 0.14 0.13 66 1004.9
20260510011555 62 211 0.9 3.5 0.00 0.14 0.13 65 1004.9
20260510011042 62 211 0.9 3.5 0.00 0.14 0.13 65 1004.8
20260510010030 62 211 0.9 4.3 0.00 0.14 0.13 64 1004.9
20260510005014 63 211 1.7 5.2 0.00 0.14 0.13 63 1004.8
20260510004507 63 211 1.7 5.2 0.00 0.14 0.13 62 1004.8
20260510004008 63 211 1.7 2.6 0.00 0.14 0.13 61 1004.8
20260510003508 64 211 1.7 4.3 0.00 0.14 0.13 61 1004.8
20260510003004 64 211 1.7 4.3 0.00 0.14 0.13 59 1004.5
20260510002500 64 211 1.7 4.3 0.00 0.14 0.13 58 1004.5
20260510001956 65 211 1.7 3.5 0.00 0.14 0.13 57 1004.5
20260510000956 65 211 4.3 8.7 0.00 0.14 0.13 57 1004.5
20260510000455 65 211 4.3 10.4 0.00 0.14 0.13 56 1004.5
20260509235955 65 210 4.3 10.4 0.00 0.14 0.13 56 1004.1
20260509235456 65 210 4.3 8.7 0.00 0.14 0.13 56 1004.1
20260509234452 66 208 5.2 13.0 0.00 0.14 0.13 55 1004.3
20260509233939 66 201 6.1 13.0 0.00 0.14 0.13 55 1004.3
20260509233428 66 197 5.2 9.6 0.00 0.14 0.13 55 1004.3
20260509232915 66 200 5.2 12.2 0.00 0.14 0.13 55 1004.0
20260509232411 66 201 5.2 12.2 0.00 0.14 0.13 55 1004.1
20260509231910 66 209 4.3 9.6 0.00 0.14 0.13 55 1004.1
20260509231410 66 205 5.2 10.4 0.00 0.14 0.13 55 1004.1
20260509230906 66 204 6.1 10.4 0.00 0.14 0.13 55 1004.1
20260509230407 66 205 7.0 11.3 0.00 0.14 0.13 54 1004.1
20260509225909 66 197 6.1 15.6 0.00 0.14 0.13 54 1004.1
20260509225407 66 202 4.3 15.6 0.00 0.14 0.13 55 1004.1
20260509224906 67 195 5.2 9.6 0.00 0.14 0.13 55 1004.1
20260509224409 66 187 6.1 13.9 0.00 0.14 0.13 55 1004.3
20260509223858 66 212 6.1 13.9 0.00 0.14 0.13 54 1004.3
20260509223352 66 217 7.0 13.9 0.00 0.14 0.13 55 1004.3
20260509222846 66 210 6.1 12.2 0.00 0.14 0.13 55 1004.2
20260509222337 66 210 5.2 12.2 0.00 0.14 0.13 56 1004.2
20260509221830 66 206 5.2 13.9 0.00 0.14 0.13 56 1004.2
20260509221324 66 217 6.1 13.9 0.00 0.14 0.13 56 1004.6
20260509215805 67 208 6.1 12.2 0.00 0.14 0.13 54 1004.5
20260509214802 68 208 6.1 12.2 0.00 0.14 0.13 53 1004.6
20260509214301 68 236 7.0 12.2 0.00 0.14 0.13 53 1004.6
20260509213753 68 241 5.2 12.2 0.00 0.14 0.13 53 1004.5
20260509213252 68 229 3.5 9.6 0.00 0.14 0.13 56 1004.5
20260509212249 67 208 7.0 14.8 0.00 0.14 0.13 56 1004.6
20260509211748 67 217 7.0 13.0 0.00 0.14 0.13 55 1004.6
20260509211250 67 214 7.0 14.8 0.00 0.14 0.13 57 1004.6
20260509210742 67 200 6.1 14.8 0.00 0.14 0.13 56 1004.6
20260509210244 67 195 4.3 9.6 0.00 0.14 0.13 58 1004.6
20260509205740 66 203 4.3 13.0 0.00 0.14 0.13 59 1005.0
20260509205231 66 202 5.2 13.0 0.00 0.14 0.13 60 1005.0
20260509204728 66 205 5.2 12.2 0.00 0.14 0.13 58 1005.0
20260509204232 66 210 6.1 12.2 0.00 0.14 0.13 59 1005.0
20260509203731 66 246 5.2 9.6 0.00 0.14 0.13 61 1005.0
20260509203226 66 191 4.3 9.6 0.00 0.14 0.13 61 1005.0
20260509202728 66 187 3.5 8.7 0.00 0.14 0.13 60 1005.1
20260509201726 66 267 7.0 14.8 0.00 0.14 0.13 63 1005.1
20260509201223 66 203 5.2 11.3 0.00 0.14 0.13 63 1005.2
20260509200212 66 248 5.2 12.2 0.00 0.14 0.13 61 1005.2
20260509195705 66 250 5.2 12.2 0.00 0.14 0.13 62 1005.5
20260509195200 65 257 7.0 12.2 0.00 0.14 0.13 63 1005.5
20260509194655 65 257 6.1 12.2 0.00 0.14 0.13 64 1005.4
20260509194144 64 234 7.0 12.2 0.00 0.14 0.13 66 1005.6
20260509193641 64 227 5.2 12.2 0.00 0.14 0.13 65 1005.6
20260509193131 64 202 4.3 10.4 0.00 0.14 0.13 67 1005.6
20260509192623 64 201 6.1 10.4 0.00 0.14 0.13 69 1005.6
20260509192111 63 208 6.1 10.4 0.00 0.14 0.13 70 1005.6
20260509191605 63 210 7.0 15.6 0.00 0.14 0.13 71 1005.6
20260509191056 63 220 7.0 15.6 0.00 0.14 0.13 70 1006.2
20260509190554 63 240 5.2 13.0 0.00 0.14 0.13 71 1006.2
20260509190047 63 210 4.3 11.3 0.00 0.14 0.13 73 1006.2
20260509185545 62 211 6.1 12.2 0.00 0.14 0.13 73 1006.2
20260509185046 62 207 5.2 12.2 0.00 0.14 0.13 75 1006.2
20260509184544 62 217 4.3 9.6 0.00 0.14 0.13 74 1006.2
20260509184033 62 217 4.3 10.4 0.00 0.14 0.13 75 1006.3
20260509183531 62 217 5.2 10.4 0.00 0.14 0.13 75 1006.3
20260509183033 61 218 5.2 11.3 0.00 0.14 0.13 76 1006.3
20260509182530 61 215 5.2 11.3 0.00 0.14 0.13 76 1006.3
20260509182030 61 212 5.2 9.6 0.00 0.14 0.13 77 1006.3
20260509181531 60 212 5.2 13.0 0.00 0.14 0.13 76 1006.3
20260509181034 60 207 6.1 13.0 0.00 0.14 0.13 78 1006.3
20260509180524 60 212 6.1 11.3 0.00 0.14 0.13 78 1006.3
20260509180022 60 217 4.3 9.6 0.00 0.14 0.13 80 1006.3
20260509175521 60 216 4.3 11.3 0.00 0.14 0.13 81 1006.3
20260509175017 60 216 5.2 11.3 0.00 0.14 0.13 82 1006.3
20260509174513 59 212 4.3 10.4 0.00 0.14 0.13 83 1006.3
20260509174011 59 213 5.2 10.4 0.00 0.14 0.13 83 1006.3
20260509173509 59 213 4.3 10.4 0.00 0.14 0.13 83 1006.3
20260509173004 59 222 4.3 8.7 0.00 0.14 0.13 84 1006.1
20260509172508 58 222 3.5 8.7 0.00 0.14 0.13 85 1006.1
20260509171955 58 222 3.5 9.6 0.00 0.14 0.13 86 1006.1
20260509171439 58 222 4.3 10.4 0.00 0.14 0.13 86 1006.0
20260509170938 58 222 4.3 10.4 0.00 0.14 0.13 87 1006.0
20260509170427 58 224 6.1 13.0 0.00 0.14 0.13 88 1006.0
20260509165927 58 227 6.1 13.0 0.00 0.14 0.13 88 1006.0
20260509165427 58 224 5.2 11.3 0.00 0.14 0.13 89 1006.0
20260509164929 58 221 4.3 9.6 0.00 0.14 0.13 90 1006.0
20260509164427 57 210 4.3 9.6 0.00 0.14 0.13 91 1006.0
20260509163926 57 210 5.2 9.6 0.00 0.14 0.13 92 1006.0
20260509162924 57 212 4.3 8.7 0.00 0.14 0.13 94 1005.7
20260509162411 57 214 4.3 8.7 0.00 0.14 0.13 96 1005.9
20260509161900 57 214 4.3 8.7 0.00 0.14 0.13 97 1005.7
20260509161353 56 215 3.5 8.7 0.00 0.14 0.13 98 1005.9
20260509160854 56 215 3.5 7.8 0.00 0.14 0.13 98 1005.9
20260509160351 56 215 3.5 5.2 0.00 0.14 0.13 98 1005.9
20260509155350 55 215 2.6 8.7 0.00 0.14 0.13 98 1005.7
20260509154843 55 215 2.6 6.1 0.00 0.14 0.13 98 1005.7
20260509154340 55 215 2.6 6.1 0.01 0.14 0.13 98 1005.6
20260509153842 55 212 2.6 6.1 0.01 0.14 0.13 98 1005.6
20260509153337 55 210 2.6 6.1 0.02 0.14 0.13 98 1005.6
20260509152331 54 206 2.6 5.2 0.02 0.14 0.13 98 1005.2
20260509151831 54 206 2.6 6.1 0.02 0.14 0.13 98 1005.1
20260509151332 53 206 3.5 7.8 0.02 0.14 0.13 98 1005.1
20260509150831 53 206 2.6 7.8 0.02 0.14 0.13 98 1005.1
20260509150330 53 207 2.6 6.1 0.03 0.14 0.13 98 1005.1
20260509145819 53 207 3.5 10.4 0.03 0.14 0.13 98 1005.5
20260509145316 53 207 3.5 10.4 0.03 0.14 0.13 98 1005.5
20260509144818 53 208 3.5 8.7 0.02 0.13 0.13 98 1005.5
20260509143813 53 208 4.3 9.6 0.02 0.13 0.12 98 1005.6
20260509143302 53 210 3.5 8.7 0.02 0.12 0.11 98 1005.6
20260509142757 53 210 3.5 6.1 0.02 0.12 0.11 98 1005.6
20260509141746 53 210 2.6 6.1 0.02 0.12 0.11 98 1005.6
20260509141239 53 210 2.6 5.2 0.02 0.12 0.11 98 1005.7
20260509140732 53 210 2.6 5.2 0.02 0.12 0.11 97 1005.7
20260509140222 53 210 2.6 5.2 0.02 0.11 0.10 97 1005.7
20260509135210 53 210 3.5 8.7 0.02 0.11 0.10 97 1005.9
20260509134700 53 210 3.5 5.2 0.03 0.11 0.10 97 1005.9
20260509134155 53 210 2.6 6.1 0.03 0.11 0.10 97 1005.9
20260509132636 53 212 3.5 7.8 0.02 0.10 0.09 97 1005.9
20260509132130 53 212 2.6 8.7 0.03 0.10 0.09 97 1005.7
20260509131616 53 211 3.5 9.6 0.03 0.10 0.09 97 1005.7
20260509130604 53 214 2.6 7.0 0.03 0.10 0.09 97 1005.9
20260509130104 53 214 2.6 7.0 0.02 0.09 0.08 97 1005.9
20260509125552 53 214 2.6 6.1 0.03 0.09 0.08 97 1005.9
20260509125049 53 214 2.6 6.1 0.03 0.09 0.08 97 1005.9
20260509124549 53 214 2.6 5.2 0.02 0.08 0.07 97 1005.9
20260509124050 52 214 2.6 5.2 0.02 0.08 0.07 97 1006.0
20260509123048 52 214 2.6 6.1 0.02 0.08 0.07 96 1006.0
20260509122544 52 214 3.5 8.7 0.02 0.08 0.07 96 1006.1
20260509122041 52 214 2.6 8.7 0.01 0.07 0.06 96 1006.1
20260509121542 52 214 2.6 5.2 0.02 0.07 0.06 96 1006.1
20260509121043 52 214 1.7 5.2 0.02 0.07 0.06 96 1006.1
20260509120041 52 214 2.6 6.1 0.03 0.07 0.06 96 1006.1
20260509115529 52 214 1.7 6.1 0.02 0.06 0.05 96 1006.1
20260509115033 52 178 1.7 4.3 0.02 0.06 0.05 95 1006.1
20260509114522 52 214 1.7 4.3 0.03 0.06 0.05 95 1006.1
20260509113502 52 214 1.7 4.3 0.03 0.06 0.05 95 1006.0
20260509113002 52 214 1.7 3.5 0.03 0.06 0.05 95 1006.0
20260509112504 52 214 1.7 3.5 0.03 0.06 0.05 95 1006.0
20260509111948 52 214 1.7 3.5 0.03 0.06 0.05 95 1006.0
20260509111440 52 214 0.9 3.5 0.02 0.05 0.04 94 1005.6
20260509110934 52 214 0.9 4.3 0.02 0.05 0.04 94 1005.6
20260509105910 52 214 2.6 7.8 0.01 0.04 0.03 94 1005.5
20260509104905 52 214 2.6 5.2 0.02 0.04 0.03 94 1005.5
20260509104405 52 214 2.6 6.1 0.01 0.03 0.02 94 1005.4
20260509103903 52 214 2.6 6.1 0.01 0.03 0.02 94 1005.4
20260509103353 52 214 2.6 4.3 0.01 0.03 0.02 94 1005.4
20260509101842 52 214 3.5 10.4 0.01 0.03 0.02 95 1005.4
20260509101342 52 214 3.5 10.4 0.01 0.03 0.02 95 1005.5
20260509100828 52 214 4.3 10.4 0.01 0.03 0.02 95 1005.5
20260509095825 52 215 3.5 7.8 0.01 0.03 0.02 95 1005.6
20260509094820 52 215 3.5 9.6 0.00 0.02 0.01 96 1005.6
20260509094317 52 215 2.6 7.8 0.00 0.02 0.01 96 1005.9
20260509093821 52 215 1.7 7.8 0.00 0.02 0.01 97 1005.9
20260509093316 51 217 1.7 5.2 0.00 0.02 0.01 97 1005.7
20260509092812 51 217 2.6 6.1 0.00 0.02 0.01 97 1005.9
20260509092312 51 217 2.6 6.1 0.00 0.02 0.01 97 1005.9
20260509091808 51 217 2.6 7.8 0.00 0.02 0.01 98 1005.9
20260509091302 51 217 2.6 7.8 0.01 0.02 0.01 98 1006.0
20260509090800 51 217 2.6 7.8 0.01 0.02 0.01 98 1006.0
20260509085757 50 217 1.7 4.3 0.01 0.02 0.01 98 1006.0
20260509085252 50 217 0.9 3.5 0.01 0.02 0.01 98 1006.0
20260509084240 50 217 0.0 1.7 0.01 0.02 0.01 98 1006.1
20260509083723 50 217 0.0 0.9 0.01 0.02 0.01 98 1006.1
20260509083221 50 217 0.0 0.9 0.01 0.02 0.01 98 1006.1
20260509082707 50 217 0.0 1.7 0.01 0.02 0.01 98 1006.1
20260509081150 50 217 0.9 3.5 0.00 0.01 0.00 97 1006.0
20260509080649 50 217 0.9 3.5 0.00 0.01 0.00 97 1006.0
20260509080129 50 217 0.9 3.5 0.00 0.01 0.00 97 1006.0
20260509075624 50 217 0.0 1.7 0.00 0.01 0.00 97 1005.9
20260509075121 50 217 0.9 3.5 0.00 0.01 0.00 97 1005.9
20260509074601 50 217 0.9 3.5 0.00 0.01 0.00 97 1005.9
20260509074055 50 217 0.9 3.5 0.00 0.01 0.00 97 1005.5
20260509073553 50 217 0.9 3.5 0.00 0.01 0.00 97 1005.5
20260509073049 50 217 0.0 1.7 0.00 0.01 0.00 97 1005.5
20260509072546 50 217 0.9 3.5 0.00 0.01 0.00 97 1005.4
20260509071516 50 217 0.0 1.7 0.00 0.01 0.00 97 1005.4
20260509071016 50 217 0.0 0.0 0.00 0.01 0.00 97 1005.3
20260509070519 50 217 0.0 0.0 0.00 0.01 0.00 97 1005.3
20260509070012 50 217 0.0 0.0 0.00 0.01 0.00 97 1005.4
20260509065458 50 217 0.0 0.0 0.00 0.01 0.00 97 1005.4
20260509064948 50 217 0.0 0.9 0.00 0.01 0.00 97 1005.4
20260509064441 50 217 0.0 0.9 0.00 0.01 0.00 97 1005.6
20260509063938 50 217 0.0 1.7 0.00 0.01 0.00 96 1005.6
20260509062924 50 217 0.9 3.5 0.00 0.01 0.00 96 1006.1
20260509062419 50 217 0.9 3.5 0.00 0.01 0.00 96 1006.1
20260509061859 50 217 0.9 3.5 0.00 0.01 0.00 96 1006.1
20260509061356 50 217 1.7 3.5 0.00 0.01 0.00 96 1006.3
20260509060849 51 217 1.7 3.5 0.00 0.01 0.00 96 1006.4
20260509060344 51 217 0.9 2.6 0.00 0.01 0.00 96 1006.3
20260509055841 50 217 0.9 2.6 0.00 0.01 0.00 95 1006.4
20260509055341 51 217 1.7 3.5 0.00 0.01 0.00 95 1006.4
20260509054832 51 217 1.7 3.5 0.00 0.01 0.00 95 1006.4
20260509054328 50 217 0.9 3.5 0.00 0.01 0.00 95 1006.4
20260509053830 50 217 0.0 0.0 0.00 0.01 0.00 95 1006.4
20260509052811 50 217 0.0 0.0 0.00 0.01 0.00 94 1006.4
20260509052307 51 217 0.0 0.0 0.00 0.01 0.00 94 1006.4
20260509051810 51 217 0.0 0.0 0.00 0.01 0.00 94 1006.4
20260509051259 51 217 0.0 0.0 0.00 0.01 0.00 94 1006.4
20260509050743 51 217 0.0 0.0 0.00 0.01 0.00 94 1006.5
20260509050239 51 217 0.0 0.0 0.00 0.01 0.00 94 1006.5
20260509045733 51 217 0.0 0.0 0.00 0.01 0.00 94 1006.5